Location: Berlise
(49.6641°N, 4.1077°E)
Time: 20:04:59
(UTC+00:00)

USA 215 - Pass Details

Date: 27 January 2021
Orbit: 1103 x 1105 km, 123.0° (Epoch: 14 February)

Event Time Altitude Azimuth Distance (km) Brightness Sun altitude
Rises 04:33:07 0° 63° (ENE) 3,927 7.2 -27.3°
Reaches altitude 10° 04:35:39 10° 59° (ENE) 2,968 6.3 -26.9°
Maximum altitude 04:42:00 56° 344° (NNW) 1,292 3.5 -25.9°
Enters shadow 04:43:19 49° 304° (NW) 1,404 3.4 -25.7°
